PTEBM SBPJ-SBGO

Flight info

Callsign PTEBM
Flight time 0h 58m
Altitude 37000
Route EGDOD DCT TOLAT
Aircraft C750/M-SBDE3FGHRWXY/S

Departure

Time 2026-05-04 10:57
Airport Brigadeiro Lysias Rodrigues Airport (SBPJ)

Arrival

Time 2026-05-04 11:55
Airport Santa Genoveva International Airport (SBGO)
Time Latitude Longitude Altitude Speed Heading
2026-05-04 10:51 -10.29507 -48.35662 747 ft 0 kts 78°
2026-05-04 10:54 -10.29160 -48.35719 745 ft 12 kts 348°
2026-05-04 10:54 -10.29081 -48.35811 745 ft 23 kts 303°
2026-05-04 10:56 -10.28554 -48.36618 747 ft 0 kts 124°
2026-05-04 10:56 -10.28590 -48.36562 749 ft 47 kts 124°
2026-05-04 10:57 -10.29000 -48.35938 777 ft 146 kts 123°
2026-05-04 10:57 -10.29626 -48.35030 1291 ft 174 kts 125°
2026-05-04 10:57 -10.30452 -48.33962 1800 ft 208 kts 128°
2026-05-04 10:57 -10.31337 -48.32675 2370 ft 236 kts 119°
2026-05-04 10:58 -10.32184 -48.31154 3072 ft 256 kts 116°
2026-05-04 10:58 -10.33108 -48.29618 4302 ft 254 kts 120°
2026-05-04 10:58 -10.34102 -48.28142 5362 ft 259 kts 121°
2026-05-04 10:58 -10.35255 -48.26711 6283 ft 269 kts 137°
2026-05-04 10:59 -10.36933 -48.25845 7300 ft 275 kts 161°
2026-05-04 10:59 -10.38850 -48.25646 8398 ft 280 kts 176°
2026-05-04 10:59 -10.40812 -48.25618 9537 ft 283 kts 176°
2026-05-04 10:59 -10.42804 -48.25577 10402 ft 293 kts 176°
2026-05-04 11:00 -10.44927 -48.25519 10722 ft 319 kts 176°
2026-05-04 11:01 -10.62551 -48.27005 14831 ft 386 kts 186°
2026-05-04 11:02 -10.65222 -48.27405 15493 ft 390 kts 186°
2026-05-04 11:02 -10.67919 -48.27824 16169 ft 394 kts 186°
2026-05-04 11:05 -11.08421 -48.32800 25540 ft 443 kts 183°
2026-05-04 11:06 -11.11509 -48.32982 26145 ft 446 kts 183°
2026-05-04 11:06 -11.14617 -48.33156 26751 ft 449 kts 183°
2026-05-04 11:06 -11.17743 -48.33337 27356 ft 452 kts 183°
2026-05-04 11:06 -11.20892 -48.33525 27953 ft 455 kts 184°
2026-05-04 11:08 -11.43403 -48.34844 31920 ft 465 kts 184°
2026-05-04 11:10 -11.65547 -48.36143 36201 ft 452 kts 185°
2026-05-04 11:12 -11.88474 -48.37492 37016 ft 498 kts 185°
2026-05-04 11:12 -11.91945 -48.37696 37018 ft 502 kts 185°
2026-05-04 11:12 -11.98962 -48.38109 37023 ft 508 kts 185°
2026-05-04 11:13 -12.06040 -48.38526 37021 ft 511 kts 185°
2026-05-04 11:13 -12.13153 -48.38945 37025 ft 513 kts 185°
2026-05-04 11:14 -12.20239 -48.39362 37026 ft 514 kts 185°
2026-05-04 11:16 -12.48607 -48.41037 37027 ft 507 kts 185°
2026-05-04 11:16 -12.55646 -48.41453 37024 ft 506 kts 185°
2026-05-04 11:17 -12.62674 -48.41869 37024 ft 506 kts 185°
2026-05-04 11:19 -12.90699 -48.43528 37034 ft 505 kts 185°
2026-05-04 11:19 -12.97719 -48.43944 37039 ft 505 kts 185°
2026-05-04 11:20 -13.04685 -48.44358 37043 ft 505 kts 185°
2026-05-04 11:20 -13.11699 -48.44774 37042 ft 505 kts 185°
2026-05-04 11:22 -13.39706 -48.46439 37050 ft 505 kts 185°
2026-05-04 11:23 -13.46719 -48.46857 37050 ft 505 kts 185°
2026-05-04 11:25 -13.71213 -48.48317 37061 ft 504 kts 185°
2026-05-04 11:25 -13.78222 -48.48736 37058 ft 504 kts 185°
2026-05-04 11:27 -14.09674 -48.50617 37057 ft 503 kts 186°
2026-05-04 11:28 -14.16660 -48.51036 37058 ft 503 kts 186°
2026-05-04 11:28 -14.23653 -48.51399 37058 ft 503 kts 185°
2026-05-04 11:29 -14.30649 -48.51755 37056 ft 503 kts 186°
2026-05-04 11:29 -14.37593 -48.52121 37058 ft 503 kts 185°
2026-05-04 11:33 -14.86478 -48.54656 37080 ft 502 kts 186°
2026-05-04 11:33 -14.93455 -48.55019 37083 ft 502 kts 186°
2026-05-04 11:34 -15.00381 -48.55380 37087 ft 502 kts 186°
2026-05-04 11:34 -15.07355 -48.55744 37088 ft 502 kts 186°
2026-05-04 11:35 -15.14329 -48.56107 37085 ft 502 kts 186°
2026-05-04 11:35 -15.21300 -48.56471 37087 ft 501 kts 187°
2026-05-04 11:36 -15.28239 -48.56835 36645 ft 511 kts 186°
2026-05-04 11:36 -15.31819 -48.57025 35938 ft 516 kts 186°
2026-05-04 11:36 -15.35349 -48.57203 35250 ft 500 kts 186°
2026-05-04 11:37 -15.38783 -48.57377 34582 ft 489 kts 186°
2026-05-04 11:37 -15.42127 -48.57677 33883 ft 475 kts 192°
2026-05-04 11:37 -15.45301 -48.58419 33244 ft 461 kts 199°
2026-05-04 11:37 -15.48288 -48.59557 32622 ft 455 kts 206°
2026-05-04 11:38 -15.51091 -48.61077 32005 ft 457 kts 212°
2026-05-04 11:38 -15.53698 -48.62973 31384 ft 460 kts 219°
2026-05-04 11:38 -15.56138 -48.65068 30771 ft 463 kts 220°
2026-05-04 11:38 -15.58637 -48.67199 30122 ft 467 kts 220°
2026-05-04 11:39 -15.61156 -48.69333 29447 ft 468 kts 220°
2026-05-04 11:39 -15.63673 -48.71480 28808 ft 467 kts 220°
2026-05-04 11:40 -15.78532 -48.84191 25020 ft 456 kts 219°
2026-05-04 11:41 -15.80976 -48.86281 24401 ft 454 kts 219°
2026-05-04 11:41 -15.83407 -48.88361 23791 ft 452 kts 219°
2026-05-04 11:41 -15.85821 -48.90429 23128 ft 448 kts 219°
2026-05-04 11:41 -15.88212 -48.92477 22510 ft 443 kts 219°
2026-05-04 11:42 -15.90574 -48.94500 21910 ft 438 kts 219°
2026-05-04 11:42 -15.92908 -48.96501 21313 ft 433 kts 219°
2026-05-04 11:42 -15.95223 -48.98486 20730 ft 429 kts 219°
2026-05-04 11:42 -15.97487 -49.00427 20154 ft 426 kts 219°
2026-05-04 11:43 -15.99766 -49.02383 19574 ft 423 kts 219°
2026-05-04 11:43 -16.02029 -49.04325 19000 ft 421 kts 219°
2026-05-04 11:43 -16.04281 -49.06258 18425 ft 418 kts 219°
2026-05-04 11:43 -16.06517 -49.08178 17819 ft 415 kts 219°
2026-05-04 11:44 -16.08730 -49.10079 17253 ft 411 kts 219°
2026-05-04 11:44 -16.10922 -49.11962 16692 ft 407 kts 219°
2026-05-04 11:44 -16.13097 -49.13829 16139 ft 404 kts 220°
2026-05-04 11:44 -16.15254 -49.15683 15590 ft 401 kts 220°
2026-05-04 11:45 -16.17370 -49.17502 15127 ft 399 kts 220°
2026-05-04 11:45 -16.19505 -49.19338 14578 ft 397 kts 220°
2026-05-04 11:45 -16.21629 -49.21164 14034 ft 396 kts 220°
2026-05-04 11:45 -16.23748 -49.22987 13448 ft 390 kts 220°
2026-05-04 11:46 -16.25798 -49.24750 12914 ft 375 kts 220°
2026-05-04 11:46 -16.27774 -49.26451 12394 ft 362 kts 220°
2026-05-04 11:46 -16.29695 -49.28106 11887 ft 355 kts 220°
2026-05-04 11:46 -16.31582 -49.29731 11387 ft 350 kts 220°
2026-05-04 11:47 -16.33447 -49.31337 10914 ft 346 kts 220°
2026-05-04 11:47 -16.35267 -49.32906 10461 ft 343 kts 220°
2026-05-04 11:47 -16.37098 -49.34484 10004 ft 341 kts 220°
2026-05-04 11:47 -16.38922 -49.36055 9517 ft 339 kts 220°
2026-05-04 11:48 -16.40735 -49.37619 9071 ft 337 kts 220°
2026-05-04 11:48 -16.42536 -49.39173 8618 ft 336 kts 220°
2026-05-04 11:48 -16.44333 -49.40722 8181 ft 334 kts 219°
2026-05-04 11:48 -16.46227 -49.42010 7682 ft 318 kts 201°
2026-05-04 11:49 -16.48316 -49.42449 7289 ft 298 kts 179°
2026-05-04 11:49 -16.50269 -49.42138 6922 ft 281 kts 158°
2026-05-04 11:49 -16.51945 -49.41216 6570 ft 265 kts 139°
2026-05-04 11:49 -16.53193 -49.39871 6102 ft 255 kts 121°
2026-05-04 11:50 -16.54073 -49.38327 5748 ft 239 kts 116°
2026-05-04 11:50 -16.54887 -49.36897 5433 ft 222 kts 116°
2026-05-04 11:50 -16.55647 -49.35558 5137 ft 208 kts 116°
2026-05-04 11:50 -16.56360 -49.34293 4885 ft 196 kts 115°
2026-05-04 11:51 -16.57034 -49.33102 4616 ft 187 kts 115°
2026-05-04 11:51 -16.57665 -49.31973 4389 ft 179 kts 115°
2026-05-04 11:51 -16.58265 -49.30873 4188 ft 170 kts 115°
2026-05-04 11:51 -16.58827 -49.29827 4012 ft 161 kts 115°
2026-05-04 11:52 -16.59359 -49.28821 3788 ft 155 kts 115°
2026-05-04 11:52 -16.59916 -49.27873 3651 ft 153 kts 119°
2026-05-04 11:52 -16.60481 -49.26950 3460 ft 149 kts 118°
2026-05-04 11:52 -16.60827 -49.26334 3355 ft 148 kts 116°
2026-05-04 11:53 -16.61318 -49.25443 3131 ft 136 kts 120°
2026-05-04 11:53 -16.61790 -49.24606 2867 ft 132 kts 121°
2026-05-04 11:53 -16.62385 -49.23553 2613 ft 123 kts 121°
2026-05-04 11:53 -16.62811 -49.22794 2465 ft 118 kts 121°
2026-05-04 11:55 -16.63699 -49.21516 2460 ft 7 kts 253°
2026-05-04 11:55 -16.63704 -49.21590 2454 ft 13 kts 287°
2026-05-04 11:56 -16.63650 -49.21690 2455 ft 17 kts 300°
2026-05-04 11:56 -16.63615 -49.21752 2452 ft 14 kts 300°
2026-05-04 11:56 -16.63563 -49.21844 2446 ft 16 kts 299°
2026-05-04 11:56 -16.63504 -49.21952 2439 ft 19 kts 301°
2026-05-04 11:57 -16.63435 -49.22072 2438 ft 19 kts 297°
2026-05-04 11:57 -16.63368 -49.22192 2436 ft 19 kts 302°
2026-05-04 11:57 -16.63322 -49.22285 2438 ft 7 kts 271°
2026-05-04 11:57 -16.63352 -49.22325 2440 ft 9 kts 224°
2026-05-04 11:58 -16.63383 -49.22374 2439 ft 6 kts 292°
2026-05-04 11:58 -16.63357 -49.22418 2437 ft 4 kts 300°
2026-05-04 11:58 -16.63364 -49.22426 2439 ft 2 kts 223°
2026-05-04 11:58 -16.63370 -49.22430 2440 ft 1 kts 212°
2026-05-04 11:59 -16.63377 -49.22434 2439 ft 1 kts 211°